2023-038C (55972 NORAD) Tracking and Keplerian Element Data

This shows tracking and keplerian element data for the satellite.

Feedback or suggestion? Click here.




ElementValue
Catalog55972
Name2023-038C
Epoch Orbit38
Epoch Day83.8779506
Epoch Year2023
RAAN355.5174
Inclination26.9114
Eccentricity0.5921241
Argument of Perigee184.2284
Mean Anonmoly166.0162
Mean Motion4.14028499
Decay Rate7.798E-05
L11 55972U 23038C 23083.87795060 .00007798 00000+0 21883-2 0 9996
L22 55972 26.9114 355.5174 5921241 184.2284 166.0162 4.14028499 380



Live tracking and technical data element details for 2023-038C (NORAD 55972). 2023-038C can be tracked NOW for your location showing map with azimuth and elevation plus other details from your city location.







IsCatalogInMostPopularTable: catalog: 55972, numindb: 6
Update: records affected: 1



GetName: 55972 2023-038C

Hit Count: updated at: Tue, 06 Jun 2023 03:26:51 GMT